Location: Eaton Estates
(41.3089°N, 82.0057°W)
Time: 14:35:40
(UTC+00:00)

First-Move - Visible Passes

Search period start: 27 March 2023 00:00
Search period end: 06 April 2023 00:00
Orbit: 564 x 644 km, 97.7° (Epoch: 27 March)

Date Brightness Start Highest point End Pass type
(mag) Time Alt. Az. Time Alt. Az. Time Alt. Az.
27 Mar ? 07:53:20 10° ENE 07:53:56 11° E 07:53:56 11° E visible
27 Mar ? 09:26:32 10° N 09:30:37 58° WNW 09:30:46 57° W visible
28 Mar ? 08:04:23 10° NE 08:06:28 15° E 08:06:28 15° E visible
28 Mar ? 09:38:56 10° N 09:42:50 41° WNW 09:43:18 39° W visible
29 Mar ? 08:16:03 10° NE 08:18:59 20° E 08:18:59 20° E visible
29 Mar ? 09:51:24 10° N 09:55:01 30° WNW 09:55:49 28° W visible
30 Mar ? 08:27:56 10° NE 08:31:28 28° E 08:31:28 28° E visible
30 Mar ? 10:03:55 10° NNW 10:07:09 23° WNW 10:08:19 20° W visible
31 Mar ? 08:39:55 10° NNE 08:43:46 38° E 08:43:58 38° ESE visible
31 Mar ? 10:16:35 10° NNW 10:19:15 17° WNW 10:20:47 14° W visible
01 Apr ? 08:51:59 10° NNE 08:56:00 54° E 08:56:25 51° SE visible
01 Apr ? 10:29:30 10° NW 10:31:19 13° WNW 10:33:05 10° W visible
02 Apr ? 09:04:06 10° NNE 09:08:12 77° ESE 09:08:51 59° S visible
03 Apr ? 09:16:16 10° N 09:20:21 76° WNW 09:21:17 51° SSW visible
04 Apr ? 07:54:58 10° ENE 07:56:18 11° E 07:56:51 11° E visible
04 Apr ? 09:28:29 10° N 09:32:28 54° WNW 09:33:41 37° SW visible
05 Apr ? 08:06:04 10° NE 08:08:33 16° E 08:09:15 15° ESE visible
05 Apr ? 09:40:45 10° N 09:44:32 38° WNW 09:46:04 27° WSW visible
